Location: Unspecified
(49.2170°N, 0.0000°E)
Time: 07:16:36
(UTC+00:00)

Tiangong 2 - Visible Passes

Search period start: 23 May 2019 00:00
Search period end: 02 June 2019 00:00
Orbit: 379 x 387 km, 42.8° (Epoch: 23 May)

Date Brightness Start Highest point End Pass type
(mag) Time Alt. Az. Time Alt. Az. Time Alt. Az.
23 May 2.3 21:10:24 10° SW 21:13:02 25° S 21:14:11 20° SE visible
24 May 2.5 21:46:52 10° WSW 21:49:05 22° SSW 21:49:05 22° SSW visible
25 May 2.4 20:46:53 10° WSW 20:49:30 24° S 20:51:42 12° SE visible
25 May 3.7 22:23:52 10° SW 22:23:53 10° SW 22:23:53 10° SW visible
26 May 2.8 21:23:32 10° WSW 21:25:48 18° SSW 21:26:27 17° S visible
28 May 3.2 21:00:23 10° SW 21:02:09 14° SSW 21:03:41 11° S visible
30 May 3.6 20:38:07 10° SSW 20:38:27 10° SSW 20:38:49 10° SSW visible
